Nenana, AK

7:57 PM AKST on February 23, 2018 (GMT -0900)
Nenana Municipal

Weather History for PANN - October, 2012

Change the Weather History Date:

Tuesday, October 9, 2012

  Actual Average Record
Temperature  
Mean Temperature 40 °F -  
Max Temperature 51 °F 39 °F 66 °F (2006)
Min Temperature 28 °F 24 °F 8 °F (2007)
Degree Days  
Heating Degree Days 26    
Moisture  
Dew Point 30 °F    
Average Humidity 85    
Maximum Humidity 100    
Minimum Humidity 62    
Precipitation  
Precipitation 0.00 in - - ()
Sea Level Pressure  
Sea Level Pressure 30.34 in    
Wind  
Wind Speed 3 mph (North)    
Max Wind Speed 13 mph    
Max Gust Speed 21 mph    
Visibility 7 miles    
Events      
Averages and records for this station are not official NWS values.
T = Trace of Precipitation, MM = Missing Value Source: NWS Daily Summary

Daily Weather History Graph

Daily Weather History Graph

Search for Another Location

Airport or City:

Trip Planner

Search our weather history database for the weather conditions in past years. The results will help you decide how hot, cold, wet, or windy it might be!

Date:

Astronomy

Oct. 09, 2012 Rise Set
Actual Time 8:31 AM AKDT 6:53 PM AKDT
Civil Twilight 7:42 AM AKDT 7:42 PM AKDT
Nautical Twilight 6:46 AM AKDT 8:38 PM AKDT
Astronomical Twilight 5:48 AM AKDT 9:36 PM AKDT
Moon 12:10 AM AKDT (10/9) 5:16 PM AKDT (10/9)
Length of Visible Light 11h 59m
Length of Day
10h 22m
Waning Crescent, 35% of the Moon is Illuminated
Oct 9
Waning Crescent
Oct 15
New
Oct 21
First Quarter
Oct 29
Full
Nov 6
Last Quarter

Hourly Weather History & Observations

Time (AKDT) Temp. Windchill Dew Point Humidity Pressure Visibility Wind Dir Wind Speed Gust Speed Precip Events Conditions
12:25 AM 33.8 °F - 32.0 °F 93% 30.31 in 10.0 mi Calm Calm - N/A   Mostly Cloudy
12:36 AM 33.8 °F 30.8 °F 32.0 °F 93% 30.31 in 10.0 mi WNW 3.5 mph - N/A   Mostly Cloudy
12:53 AM 33.1 °F 28.7 °F 32.0 °F 96% 30.34 in 9.0 mi West 4.6 mph - N/A   Mostly Cloudy
1:01 AM 33.8 °F 29.6 °F 32.0 °F 93% 30.31 in 3.0 mi West 4.6 mph - N/A   Scattered Clouds
1:03 AM 33.8 °F 29.6 °F 32.0 °F 93% 30.31 in 2.5 mi West 4.6 mph - N/A   Mostly Cloudy
1:15 AM 33.8 °F 30.8 °F 32.0 °F 93% 30.31 in 7.0 mi West 3.5 mph - N/A   Scattered Clouds
1:40 AM 33.8 °F 29.6 °F 32.0 °F 93% 30.31 in 2.0 mi West 4.6 mph - N/A   Mostly Cloudy
1:53 AM 34.0 °F 28.8 °F 32.0 °F 92% 30.34 in 1.2 mi WNW 5.8 mph - N/A   Mostly Cloudy
2:03 AM 33.8 °F 30.8 °F 33.8 °F 100% 30.31 in 0.8 mi WNW 3.5 mph - N/A   Mist
2:20 AM 33.8 °F 30.8 °F 33.8 °F 100% 30.32 in 1.2 mi NW 3.5 mph - N/A   Overcast
2:51 AM 33.8 °F 30.8 °F 32.0 °F 93% 30.32 in 0.8 mi NW 3.5 mph - N/A   Mist
2:53 AM 33.1 °F - 32.0 °F 96% 30.35 in 0.8 mi Calm Calm - N/A   Mist
3:53 AM 30.9 °F - 30.0 °F 96% 30.35 in 2.0 mi Calm Calm - N/A   Mostly Cloudy
4:00 AM 30.2 °F - 30.2 °F 100% 30.32 in 5.0 mi Calm Calm - N/A   Scattered Clouds
4:06 AM 30.2 °F - 30.2 °F 100% 30.32 in 2.5 mi Calm Calm - N/A   Mostly Cloudy
4:17 AM 30.2 °F - 28.4 °F 93% 30.32 in 3.0 mi Calm Calm - N/A   Mostly Cloudy
4:20 AM 30.2 °F - 28.4 °F 93% 30.32 in 1.8 mi Calm Calm - N/A   Mostly Cloudy
4:33 AM 30.2 °F - 28.4 °F 93% 30.33 in 3.0 mi Calm Calm - N/A   Overcast
4:48 AM 30.2 °F - 30.2 °F 100% 30.33 in 3.0 mi Calm Calm - N/A   Overcast
4:53 AM 30.9 °F - 30.0 °F 96% 30.36 in 7.0 mi Calm Calm - N/A   Mostly Cloudy
5:53 AM 30.0 °F - 28.0 °F 92% 30.36 in 10.0 mi Calm Calm - N/A   Partly Cloudy
6:08 AM 30.2 °F - 28.4 °F 93% 30.33 in 10.0 mi Calm Calm - N/A   Mostly Cloudy
6:19 AM 30.2 °F - 28.4 °F 93% 30.33 in 10.0 mi Calm Calm - N/A   Scattered Clouds
6:53 AM 30.0 °F - 28.0 °F 92% 30.37 in 9.0 mi Calm Calm - N/A   Clear
7:53 AM 30.0 °F - 27.0 °F 88% 30.37 in 10.0 mi Calm Calm - N/A   Clear
8:53 AM 28.0 °F - 25.0 °F 88% 30.38 in 3.0 mi Calm Calm - N/A   Clear
9:53 AM 28.0 °F - 27.0 °F 96% 30.39 in 10.0 mi Calm Calm - N/A   Clear
10:53 AM 32.0 °F - 30.0 °F 92% 30.40 in 10.0 mi Calm Calm - N/A   Clear
11:53 AM 33.1 °F - 28.9 °F 85% 30.40 in 10.0 mi Calm Calm - N/A   Clear
12:53 PM 37.0 °F 31.6 °F 28.9 °F 73% 30.41 in 10.0 mi ENE 6.9 mph - N/A   Clear
1:53 PM 37.9 °F 32.7 °F 28.9 °F 70% 30.40 in 10.0 mi ENE 6.9 mph - N/A   Clear
2:53 PM 39.9 °F 33.9 °F 30.0 °F 68% 30.40 in 10.0 mi NE 9.2 mph - N/A   Scattered Clouds
3:03 PM 41.0 °F 35.2 °F 30.2 °F 65% 30.37 in 10.0 mi ENE 9.2 mph - N/A   Mostly Cloudy
3:50 PM 39.2 °F 33.6 °F 28.4 °F 65% 30.37 in 10.0 mi ENE 8.1 mph - N/A   Overcast
3:53 PM 39.9 °F 34.5 °F 28.0 °F 63% 30.40 in 10.0 mi NE 8.1 mph - N/A   Overcast
4:53 PM 39.0 °F 34.0 °F 27.0 °F 62% 30.40 in 10.0 mi ENE 6.9 mph - N/A   Overcast
5:53 PM 37.9 °F 32.1 °F 27.0 °F 65% 30.39 in 10.0 mi NE 8.1 mph - N/A   Mostly Cloudy
6:53 PM 37.0 °F 31.6 °F 26.1 °F 65% 30.38 in 10.0 mi NE 6.9 mph - N/A   Overcast
7:53 PM 36.0 °F 31.1 °F 26.1 °F 67% 30.38 in 10.0 mi NE 5.8 mph - N/A   Overcast
8:53 PM 36.0 °F 27.5 °F 25.0 °F 64% 30.37 in 10.0 mi NE 12.7 mph 20.7 mph N/A   Overcast
9:53 PM 35.1 °F 27.9 °F 24.1 °F 64% 30.36 in 10.0 mi NE 9.2 mph - N/A   Overcast
10:53 PM 34.0 °F 26.6 °F 23.0 °F 64% 30.35 in 10.0 mi NE 9.2 mph 19.6 mph N/A   Clear
11:53 PM 33.1 °F 24.9 °F 21.9 °F 64% 30.35 in 10.0 mi NE 10.4 mph 19.6 mph N/A   Clear